Regional Weather Roundup
Issued by NWS

Home | Current Version | Previous Version | Text Only | Print | Product List | Glossary Off
Versions: 1 2 3 4 5 6 7 8 9 10 11 12 13 14 15 16 17 18 19 20 21 22 23 24 25 26 27 28 29 30 31 32 33 34 35 36 37 38 39 40 41 42 43 44 45 46 47 48 49 50

000
ASUS43 KMPX 021810
RWRMN
WEATHER ROUNDUP FOR MINNESOTA
NATIONAL WEATHER SERVICE TWIN CITIES/CHANHASSEN MN
100 PM CDT MON MAY 02 2016


NOTE: "FAIR" INDICATES FEW OR NO CLOUDS BELOW 12,000 FEET WITH NO
SIGNIFICANT WEATHER AND/OR OBSTRUCTIONS TO VISIBILITY. N/A MEANS
CURRENT SKY AND/OR WEATHER CONDITIONS ARE NOT AVAILABLE.

MNZ060>063-068>070-021900-
   Twin Cities Metro

CITY           SKY/WX    TMP DP  RH WIND       PRES   REMARKS
TWIN CITIES    MOSUNNY   62  30  29 CALM      30.08F
6HR MIN TEMP:  44; 6HR MAX TEMP:  62;

ST PAUL        SUNNY     63  32  31 E5        30.08F
CRYSTAL        SUNNY     65  29  25 W6        30.07F
BLAINE         MOSUNNY   64  34  32 VRB3      30.08F
EDEN PRAIRIE   SUNNY     64  29  26 CALM      30.07F
6HR MIN TEMP:  43; 6HR MAX TEMP:  65;

SOUTH ST PAUL  SUNNY     62  30  30 W5        30.08F
LAKE ELMO      FAIR      61  34  36 S3        30.09F
$$
MNZ001>005-007-008-013>017-022>024-027-028-021900-
   Northwest Minnesota

CITY           SKY/WX    TMP DP  RH WIND       PRES   REMARKS
BEMIDJI        SUNNY     62  27  25 NE6       30.04F
HALLOCK        MOSUNNY   68  25  19 S7        30.00F
ROSEAU         SUNNY     64  23  20 W5        30.02F
WARROAD        SUNNY     61  34  36 NE12      30.04F
THIEF RVR FALL SUNNY     66  27  22 NE9       30.03F
CROOKSTON      SUNNY     66  27  22 E3        30.01F
FOSSTON        SUNNY     66  28  24 SE7       30.03F
DETROIT LAKES  SUNNY     63  30  29 SE9       30.04F
MOORHEAD       SUNNY     64  27  24 NE3       30.02F
PARK RAPIDS    SUNNY     64  24  21 E3        30.03F
MAHNOMEN       FAIR      64  26  23 W5        30.02F
$$
MNZ006-009>011-018-025>026-021900-
   North Central Minnesota

CITY           SKY/WX    TMP DP  RH WIND       PRES   REMARKS
BAUDETTE       SUNNY     65  27  23 E9        30.03F
FLAG ISLAND    SUNNY     55  32  41 S3        30.04F
INTL FALLS     SUNNY     64  30  27 SE9       30.03F
6HR MIN TEMP:  33; 6HR MAX TEMP:  64;

WASKISH        SUNNY     63  30  29 W6        30.04F
BIG FORK       SUNNY     66  30  26 SE5       30.04F
LONGVILLE      SUNNY     64  28  25 S5        30.05F
GRAND RAPIDS   PTSUNNY   61  30  31 SW6       30.06F
CRANE LAKE     SUNNY     61  28  29 N5        30.06F
ORR            SUNNY    N/A N/A N/A NW6         N/A
COOK           SUNNY     61  30  31 N6        30.05F
WALKER         FAIR      62  30  30 E9        30.04F
$$
MNZ012-019>021-037-021900-
   Northeast Minnesota

CITY           SKY/WX    TMP DP  RH WIND       PRES   REMARKS
DULUTH         MOSUNNY   60  33  36 SE12      30.07F
6HR MIN TEMP:  35; 6HR MAX TEMP:  61;

ELY            PTSUNNY   61  27  27 NE5       30.05F
HIBBING        MOSUNNY   60  31  33 S7        30.05F
EVELETH        SUNNY     63  32  31 W6        30.06F
DULUTH HARBOR  SUNNY     43  37  81 NE5       30.10F
TWO HARBORS    SUNNY     63  39  42 SE9       30.06F
SILVER BAY     SUNNY     59  32  36 S12       30.06F
GRAND MARAIS     N/A     42  34  73 SE5       30.10F
G MARAIS ARPRT SUNNY     57  28  33 S7        30.07F
$$
MNZ029>031-032-039>041-046>048-054>057-064-021900-
   West Central Minnesota

CITY           SKY/WX    TMP DP  RH WIND       PRES   REMARKS
FERGUS FALLS   MOSUNNY   64  30  27 CALM      30.01F
WHEATON        MOSUNNY   66  34  30 CALM      30.04F
MORRIS         MOSUNNY   66  28  24 SE5       30.03F
ALEXANDRIA     MOSUNNY   62  27  26 N3        30.06F
ELBOW LAKE     FAIR      62  29  29 NE5       30.04F
WADENA         MOSUNNY   63  32  31 NW7       30.04S
GLENWOOD       SUNNY     64  28  25 CALM      30.06F
APPLETON       SUNNY     66  28  24 SW3       30.04F
BENSON         PTSUNNY   63  27  25 N3        30.05F
ORTONVILLE     PTSUNNY   64  30  27 W3        30.04F
MADISON        SUNNY     64  30  27 SE5       30.05F
WILLMAR        FAIR      64  34  32 SE6       30.07F
$$
MNZ033>034-036-042>043-049>051-058-059-021900-
   Central Minnesota

CITY           SKY/WX    TMP DP  RH WIND       PRES   REMARKS
ST CLOUD       MOSUNNY   63  30  28 SE3       30.06F
6HR MIN TEMP:  35; 6HR MAX TEMP:  64;

SAUK CENTRE    MOCLDY    62  31  31 N3        30.06S
PAYNESVILLE    MOSUNNY   63  29  28 E5        30.06F
AITKIN         CLOUDY    64  25  22 SW3       30.05F
PINE RIVER     MOSUNNY   64  36  34 W6        30.07F
BRAINERD       PTSUNNY   61  30  31 VRB7      30.05F
STAPLES        SUNNY     64  28  25 W7        30.04F
LONG PRAIRIE   PTSUNNY   59  32  36 W3        30.06S
LITTLE FALLS   MOSUNNY   61  30  31 S8        30.06F
LITCHFIELD     SUNNY     63  34  34 CALM      30.07F
BUFFALO        MOSUNNY   61  31  32 NE5       30.08F
MAPLE LAKE     SUNNY     64  36  35 SE5       30.08F
HUTCHINSON     SUNNY     63  37  38 E3        30.08F
$$
MNZ037-044-045-052-053-021900-
   East Central Minnesota

CITY           SKY/WX    TMP DP  RH WIND       PRES   REMARKS
PRINCETON      MOSUNNY   64  34  32 SE7       30.07F
MORA           MOSUNNY   59  32  36 SW5       30.08F
CAMBRIDGE      MOSUNNY   66  43  42 SE5       30.06F
RUSH CITY      SUNNY     62  33  33 S3        30.07F
MOOSE LAKE     MOSUNNY   63  34  34 NE7       30.05F
HINCKLEY       MOCLDY    63  34  34 NW3       30.07F
CLOQUET        CLOUDY    59  28  31 NE6       30.07F
MCGREGOR       MOSUNNY   63  32  31 W5        30.06F
$$
MNZ071>073-080-081-089-090-097-098-021900-
   Southwest Minnesota

CITY           SKY/WX    TMP DP  RH WIND       PRES   REMARKS
MONTEVIDEO     SUNNY     66  34  30 SW5       30.08S
GRANITE FALLS  MOSUNNY   65  36  33 CALM      30.08F
CANBY          SUNNY     66  34  29 SW5       30.06F
MARSHALL       MOSUNNY   62  32  32 VRB5      30.07F
REDWOOD FALLS  SUNNY     63  30  28 VRB3      30.07F
OLIVIA         MOSUNNY   63  32  31 CALM      30.06F
PIPESTONE      MOSUNNY   61  30  31 SW5       30.07F
WINDOM         SUNNY     63  32  31 CALM      30.09F
WORTHINGTON    MOSUNNY   59  33  37 CALM      30.09F
JACKSON        SUNNY     59  32  36 CALM      30.10F
TRACY          CLOUDY    63  35  36 CALM      30.08F
SLAYTON        MOSUNNY   60  33  36 SE5       30.09F
$$
MNZ065>067-074>077-082>085-091>093-021900-
   South Central Minnesota

CITY           SKY/WX    TMP DP  RH WIND       PRES   REMARKS
MANKATO        PTSUNNY   61  34  36 CALM      30.09F
NEW ULM        SUNNY     61  36  39 CALM      30.08F
ST JAMES       SUNNY     55  30  38 CALM      30.10F
FAIRMONT       CLOUDY    59  25  27 CALM      30.09F
GLENCOE        MOSUNNY   63  37  37 CALM      30.07F
FARIBAULT      SUNNY     63  34  34 SW5       30.09F
OWATONNA       SUNNY     63  36  36 SW6       30.08F
WASECA         PTSUNNY   59  36  41 N5        30.09F
ALBERT LEA     CLOUDY    59  37  44 CALM      30.09F
$$
MNZ078>079-086>088-094>096-021900-
   Southeast Minnesota

CITY           SKY/WX    TMP DP  RH WIND       PRES   REMARKS
ROCHESTER      MOSUNNY   61  40  45 S6        30.10F
6HR MIN TEMP:  39; 6HR MAX TEMP:  61;

RED WING       SUNNY     64  30  27 W6        30.07F
STANTON        PTSUNNY   62  35  36 N5        30.07F
DODGE CENTER   PTSUNNY   61  36  39 NW5       30.09F
WINONA         MOSUNNY   63  36  36 CALM      30.08F
AUSTIN         MOSUNNY   61  39  44 CALM      30.08F
PRESTON        MOSUNNY   59  38  45 S3        30.09F
$$
ABBREVIATIONS USED IN REMARKS
   TC - TEMPERATURES IN CELSIUS
  WCI - WIND CHILL INDEX
   HX - HEAT INDEX
  VSB - VISIBILITY
$$




USA.gov is the U.S. government's official web portal to all federal, state and local government web resources and services.